Showing default

N1-ATLAS, 68501

Orbit data source: Space-Track

N1-ATLAS, 68501 is an American payload satellite in SSO that was launched on Mon, 30 Mar 2026 UTC via an FALCON 9 launch vehicle from the Air Force Western Test Range (AFWTR). Payload-class satellites include a variety of spacecraft equipped with specific instruments for various scientific and technological missions. These include communications satellites like Starlink; space stations such as the ISS; scientific satellites like the Hubble; Earth observation satellites from companies like Planet Labs, Umbra, and HawkEye 360; GPS; miniature CubeSats for education and research; and military/defense satellites.

Loading next visibility...
Identifier
68501, 2026-067CP
Orbit
SSO
Country
Flag of USUS
Related business
Manufacturer
NOVI
Mission
Operational Commercial Imaging
Bus & Motor
CUBESAT 6U, Unknown motor
Mass
13 kg wet, 13 kg dry
Launch date (UTC)
2026-03-30 (6 months ago)
Launch vehicle
FALCON 9
Launch site
Air Force Western Test Range (AFWTR)
Object type
Payload
Rocket body
Debris
Shape & HBR
Box + 2 Pan, 2.0 m
Radar Cross Section
0.163 m², Medium (>0.1 m² and < 1m²)

Expand to show TLE details & history
Last TLE update: 8 hours ago

TLE from 8 hours ago
0 N1-ATLAS
1 68501U 26067CP  26263.12637178  .00001071  00000-0  11188-3 0  9996
2 68501  97.7740 219.9581 0004926  76.3713 283.8054 14.91752272 25871
Epoch: 2026-09-20T03:01Z
TLE epoch observation values (Epoch: 2026-09-20T03:01:58.521Z)
Latitude
-0.00005°
Longitude
175.43924°
Altitude
594.695 km
Speed
7.563 km/s
True Right ascension
14h 39m 49s
True Declination
0° 00' 00"
Sunlit
Object was in daylight at epoch
Visualization orbit readout
Latitude
Unknown
Longitude
Unknown
Altitude
Unknown
Speed
Unknown
Apparent Right ascension
Unknown
Apparent Declination
Unknown
Sunlit
N/A
Visualization observer readout
Local Sidereal Time
04:11:21
Azimuth
Unknown
Elevation
Unknown
Doppler factor
Unknown
Orbital elements
Apogee altitude
592.923 km
Perigee altitude
586.059 km
Semi-major axis
6,967.628 km
Eccentricity
0.00049
Inclination
97.774°
RAAN
219.9581°
Arg. of periapsis
76.3713°
True anomaly
283.75057°
Mean anomaly
283.8054°
Eccentric anomaly
283.77799°
Mean motion
3.73178 °/min
Orbital period
96.47 mins
BSTAR
0.00011188
Loading maneuver chart data...
Computing Atmospheric mass density...
Loading historical data...
Loading historical data...
Loading historical data...
Loading historical data...
Loading historical data...
Loading historical data...
Loading historical data...

Documentation

Showing up to 5 results
|